Location: ???????
(56.2167°N, 38.0500°E)
Time: 13:52:03
(UTC+00:00)

ARIANE 6 FM1 Upper Stage - Pass Details

Date: 19 May 2025
Orbit: 530 x 610 km, 62.0° (Epoch: 19 June)

Event Time Altitude Azimuth Distance (km) Brightness Sun altitude
Rises 22:02:43 0° 284° (WNW) 2,690 6.2 -13.4°
Reaches altitude 10° 22:05:02 10° 294° (WNW) 1,806 5.4 -13.3°
Maximum altitude 22:08:49 36° 2° (N) 881 4.4 -13.2°
Drops below altitude 10° 22:12:39 10° 70° (ENE) 1,842 5.7 -13.1°
Sets 22:15:02 0° 79° (E) 2,751 6.5 -13.1°
